1521442800.11,28060,6.63,71884.5,-3.33,-5.31,-5.27,0,*58
1521442801.39,28061,6.63,71880.8,-3.33,-5.27,-5.31,0,*59
1521442802.67,28062,6.63,71880.0,-3.33,-5.31,-5.27,0,*5A
1521442803.95,28063,6.56,71880.3,-3.33,-5.19,-5.27,0,*51
1521442805.24,28064,6.63,71882.3,-3.33,-5.19,-5.27,0,*56
1521442806.52,28065,6.56,71876.5,-3.33,-5.27,-5.27,0,*5A
1521442807.8,28066,6.56,71878.3,-3.33,-5.27,-5.27,0,*59
1521442809.08,28067,6.56,71878.0,-3.33,-5.27,-5.27,0,*58
1521442810.37,28068,6.63,71880.0,-3.33,-5.19,-5.27,0,*5A
1521442811.65,28069,6.56,71878.5,-3.33,-5.19,-5.27,0,*5B
1521442812.93,28070,6.63,71880.5,-3.33,-5.31,-5.19,0,*54
1521442814.21,28071,6.63,71882.8,-3.33,-5.19,-5.19,0,*5F
1521442815.49,28072,6.63,71882.5,-3.33,-5.27,-5.27,0,*5C
1521442816.78,28073,6.63,71880.0,-3.33,-5.27,-5.27,0,*5D
1521442818.06,28074,6.63,71878.8,-3.33,-5.19,-5.19,0,*5A
1521442819.34,28075,6.63,71880.8,-3.33,-5.27,-5.31,0,*5C
1521442820.62,28076,6.63,71880.5,-3.33,-5.15,-5.23,0,*5D
1521442821.91,28077,6.63,71880.3,-3.29,-5.23,-5.23,0,*52
1521442823.19,28078,6.63,71878.5,-3.29,-5.15,-5.27,0,*5C
1521442824.47,28079,6.63,71876.8,-3.29,-5.15,-5.23,0,*59
1521442825.75,28080,6.63,71876.8,-3.29,-5.15,-5.23,0,*5F
1521442827.03,28081,6.63,71876.8,-3.29,-5.23,-5.15,0,*5E
1521442828.28,28082,6.63,71878.0,-3.27,-5.15,-5.15,0,*56
1521442829.56,28083,6.63,71880.3,-3.29,-5.23,-5.23,0,*59
1521442830.82,28084,6.63,71880.0,-3.27,-5.23,-5.23,0,*50
1521442832.1,28085,6.63,71878.5,-3.29,-5.23,-5.23,0,*5F
1521442833.35,28086,6.63,71880.0,-3.27,-5.23,-5.11,0,*53
1521442834.61,28087,6.63,71876.0,-3.27,-5.15,-5.15,0,*53
1521442835.86,28088,6.63,71882.0,-3.27,-5.11,-5.23,0,*5D
1521442837.11,28089,6.63,71878.8,-3.27,-5.23,-5.23,0,*5D
1521442838.37,28090,6.63,71878.0,-3.27,-5.23,-5.15,0,*50
1521442839.62,28091,6.63,71876.0,-3.27,-5.15,-5.23,0,*51
1521442840.9,28092,6.56,71876.8,-3.29,-5.15,-5.15,0,*59
1521442842.18,28093,6.63,71878.8,-3.29,-5.15,-5.15,0,*58
1521442843.45,28094,6.63,71876.0,-3.25,-5.11,-5.19,0,*5B
1521442844.73,28095,6.56,71876.8,-3.29,-5.23,-5.23,0,*5E
1521442845.98,28096,6.63,71882.8,-3.27,-5.15,-5.15,0,*53
1521442847.24,28097,6.63,71882.3,-3.27,-5.15,-5.15,0,*52
1521442848.49,28098,6.63,71882.0,-3.27,-5.15,-5.23,0,*58
1521442849.74,28099,6.63,71878.8,-3.27,-5.15,-5.15,0,*5C
1521442851.01,28100,6.63,71882.0,-3.25,-5.11,-5.11,0,*5F
1521442852.29,28101,6.63,71882.8,-3.25,-5.11,-5.11,0,*5E
1521442853.57,28102,6.63,71878.5,-3.25,-5.07,-5.03,0,*59
1521442854.82,28103,6.63,71880.8,-3.27,-5.11,-5.15,0,*5A
1521442856.09,28104,6.63,71882.5,-3.25,-5.11,-5.07,0,*5C
1521442857.37,28105,6.63,71884.0,-3.25,-5.11,-5.07,0,*5D
1521442858.64,28106,6.63,71882.3,-3.25,-5.11,-5.11,0,*59
1521442859.89,28107,6.63,71880.8,-3.27,-5.15,-5.15,0,*5A
1521442861.17,28108,6.63,71882.0,-3.25,-5.07,-5.11,0,*50
1521442862.44,28109,6.63,71876.5,-3.25,-5.11,-5.19,0,*5E
1521442863.69,28110,6.63,71876.0,-3.27,-5.11,-5.15,0,*58
1521442864.96,28111,6.63,71878.0,-3.25,-5.11,-5.11,0,*5F
1521442866.24,28112,6.63,71876.5,-3.25,-5.11,-5.07,0,*5B
1521442867.51,28113,6.63,71880.8,-3.25,-5.07,-5.11,0,*5A
1521442868.77,28114,6.63,71876.0,-3.23,-5.03,-5.07,0,*58
1521442870.03,28115,6.63,71876.0,-3.23,-5.03,-5.03,0,*5D
1521442871.28,28116,6.63,71882.3,-3.23,-5.07,-5.07,0,*5E
1521442872.54,28117,6.63,71876.8,-3.23,-5.07,-5.07,0,*5F
1521442873.81,28118,6.63,71880.5,-3.25,-5.07,-5.11,0,*51
1521442875.07,28119,6.63,71878.5,-3.23,-5.07,-5.03,0,*55
1521442876.32,28120,6.63,71880.5,-3.23,-5.07,-5.07,0,*5B
1521442877.61,28121,6.56,71876.5,-3.21,-5.03,-5.07,0,*5C
1521442878.89,28122,6.63,71878.3,-3.21,-5.07,-5.07,0,*5B
1521442880.18,28123,6.63,71880.0,-3.21,-5.03,-5.03,0,*5A
1521442881.43,28124,6.63,71878.5,-3.23,-5.07,-5.07,0,*5F
1521442882.69,28125,6.63,71878.3,-3.23,-5.03,-5.03,0,*5E
1521442883.94,28126,6.63,71878.3,-3.23,-5.03,-5.07,0,*59
1521442885.2,28127,6.63,71878.3,-3.23,-5.07,-5.03,0,*58
1521442886.45,28128,6.63,71878.0,-3.23,-5.03,-5.07,0,*57
1521442887.71,28129,6.63,71876.5,-3.23,-5.03,-5.03,0,*52
1521442888.9,28130,6.63,71874.5,-3.19,-4.99,-4.99,0,*53
1521442890.18,28131,6.63,71876.0,-3.21,-5.03,-5.07,0,*5D
1521442891.47,28132,6.63,71878.0,-3.21,-5.03,-5.03,0,*5A
1521442892.66,28133,6.63,71880.0,-3.19,-4.99,-4.99,0,*50
1521442893.94,28134,6.63,71882.3,-3.21,-5.03,-5.03,0,*5C
1521442895.23,28135,6.63,71878.0,-3.21,-5.03,-5.03,0,*5D
1521442896.51,28136,6.63,71876.8,-3.21,-5.03,-5.03,0,*5E
1521442897.74,28137,6.63,71876.3,-3.19,-5.03,-4.99,0,*56
1521442899.01,28138,6.63,71878.3,-3.21,-4.93,-5.03,0,*58
1521442900.29,28139,6.63,71878.8,-3.21,-5.07,-5.07,0,*51
1521442901.55,28140,6.63,71876.8,-3.19,-5.03,-5.03,0,*54
1521442902.77,28141,6.63,71876.3,-3.19,-4.89,-4.99,0,*54
1521442904.02,28142,6.63,71878.8,-3.21,-4.99,-4.89,0,*5C
1521442905.24,28143,6.63,71878.0,-3.19,-5.03,-4.99,0,*55
1521442906.46,28144,6.63,71876.5,-3.19,-4.99,-4.89,0,*51
1521442907.68,28145,6.63,71882.3,-3.19,-4.89,-4.99,0,*50
1521442908.9,28146,6.63,71876.3,-3.19,-4.89,-4.99,0,*53
1521442910.15,28147,6.63,71878.8,-3.19,-4.85,-4.89,0,*5F
1521442911.4,28148,6.63,71876.5,-3.19,-4.89,-4.89,0,*5C
1521442912.64,28149,6.63,71882.3,-3.19,-4.85,-4.89,0,*51
1521442913.86,28150,6.63,71876.0,-3.19,-4.89,-4.99,0,*54
1521442915.14,28151,6.63,71882.0,-3.17,-4.89,-4.89,0,*5A
1521442916.4,28152,6.63,71880.0,-3.13,-4.93,-4.85,0,*5A
1521442917.68,28153,6.63,71880.8,-3.17,-4.89,-4.89,0,*58
1521442918.95,28154,6.63,71886.3,-3.17,-4.89,-4.85,0,*53
1521442920.22,28155,6.63,71882.0,-3.17,-4.85,-4.89,0,*52
1521442921.49,28156,6.63,71882.0,-3.17,-4.89,-4.89,0,*5D
1521442922.76,28157,6.63,71884.3,-3.13,-4.85,-4.93,0,*5F
1521442924.02,28158,6.63,71882.5,-3.13,-4.93,-4.93,0,*57
1521442925.29,28159,6.63,71878.8,-3.13,-4.85,-4.93,0,*51
1521442926.55,28160,6.63,71880.0,-3.13,-4.93,-4.93,0,*5C
1521442927.82,28161,6.63,71882.8,-3.13,-4.81,-4.85,0,*59
1521442929.08,28162,6.63,71878.5,-3.13,-4.85,-4.93,0,*59
1521442930.34,28163,6.63,71878.8,-3.13,-4.85,-4.93,0,*58
1521442931.59,28164,6.63,71880.8,-3.11,-4.81,-4.85,0,*5E
1521442932.83,28165,6.63,71880.0,-3.11,-4.93,-4.85,0,*5C
1521442934.08,28166,6.63,71882.0,-3.11,-4.81,-4.85,0,*5C
1521442935.35,28167,6.63,71878.3,-3.09,-4.81,-4.77,0,*59
1521442936.62,28168,6.63,71882.8,-3.09,-4.81,-4.77,0,*56
1521442937.86,28169,6.63,71882.5,-3.11,-4.85,-4.85,0,*57
1521442939.13,28170,6.63,71880.5,-3.09,-4.77,-4.81,0,*5F
1521442940.35,28171,6.63,71880.8,-3.11,-4.99,-4.85,0,*53
1521442941.59,28172,6.63,71882.8,-3.11,-4.81,-4.85,0,*59
1521442942.84,28173,6.63,71880.0,-3.11,-4.85,-4.93,0,*5B
1521442944.11,28174,6.63,71880.8,-3.09,-4.81,-4.81,0,*52
1521442945.38,28175,6.63,71880.3,-3.09,-4.81,-4.81,0,*53
1521442946.62,28176,6.63,71882.5,-3.11,-4.77,-4.81,0,*50
1521442947.89,28177,6.63,71878.8,-3.09,-4.77,-4.89,0,*50
1521442949.16,28178,6.63,71880.0,-3.09,-4.81,-4.81,0,*5E
1521442950.43,28179,6.63,71884.0,-3.09,-4.77,-4.81,0,*56
1521442951.68,28180,6.63,71882.0,-3.07,-4.77,-4.81,0,*5E
1521442952.92,28181,6.63,71882.5,-3.07,-4.81,-4.81,0,*56
1521442954.17,28182,6.63,71880.5,-3.07,-4.81,-4.81,0,*55
1521442955.41,28183,6.63,71882.8,-3.07,-4.77,-4.81,0,*5D
1521442956.66,28184,6.63,71884.8,-3.07,-4.89,-4.81,0,*5B
1521442957.91,28185,6.63,71880.3,-3.07,-4.81,-4.81,0,*52
1521442959.17,28186,6.63,71878.8,-3.05,-4.77,-4.77,0,*53
1521442960.41,28187,6.63,71880.5,-3.03,-4.73,-4.73,0,*54
1521442961.68,28188,6.63,71882.8,-3.05,-4.73,-4.77,0,*59
1521442962.94,28189,6.63,71882.5,-3.05,-4.73,-4.77,0,*58
1521442964.2,28190,6.63,71882.5,-3.05,-4.77,-4.77,0,*54
1521442965.46,28191,6.63,71880.8,-3.05,-4.77,-4.73,0,*51
1521442966.73,28192,6.63,71882.8,-3.05,-4.73,-4.77,0,*52
1521442967.99,28193,6.63,71880.0,-3.05,-4.73,-4.77,0,*53
1521442969.23,28194,6.63,71880.5,-3.03,-4.69,-4.73,0,*5D
1521442970.46,28195,6.63,71882.0,-3.03,-4.65,-4.73,0,*50
1521442971.7,28196,6.63,71882.0,-3.03,-4.69,-4.69,0,*54
1521442972.95,28197,6.63,71880.3,-3.03,-4.73,-4.73,0,*55
1521442974.19,28198,6.63,71882.0,-3.03,-4.73,-4.73,0,*5A
1521442975.44,28199,6.63,71880.3,-3.03,-4.73,-4.73,0,*5B
1521442976.68,28200,6.63,71882.5,-3.03,-4.73,-4.69,0,*53
1521442977.93,28201,6.63,71882.0,-3.03,-4.73,-4.69,0,*52
1521442979.18,28202,6.63,71876.3,-3.03,-4.73,-4.73,0,*5A
1521442980.42,28203,6.63,71878.0,-3.03,-4.69,-4.69,0,*5B
1521442981.69,28204,6.63,71880.0,-3.01,-4.69,-4.69,0,*5E
1521442982.96,28205,6.63,71880.8,-3.01,-4.73,-4.69,0,*54
1521442984.24,28206,6.63,71882.3,-3.01,-4.73,-4.69,0,*57
1521442985.51,28207,6.63,71882.5,-3.01,-4.73,-4.69,0,*56
1521442986.75,28208,6.63,71882.5,-3.03,-4.69,-4.73,0,*5B
1521442988.02,28209,6.63,71880.5,-3.01,-4.69,-4.73,0,*58
1521442989.29,28210,6.63,71882.3,-3.01,-4.73,-4.69,0,*50
1521442990.56,28211,6.63,71880.3,-3.01,-4.73,-4.73,0,*5A
1521442991.79,28212,6.63,71886.3,-2.99,-4.65,-4.69,0,*55
1521442992.99,28213,6.63,71882.8,-2.99,-4.65,-4.65,0,*58
1521442994.19,28214,6.63,71880.3,-2.99,-4.65,-4.65,0,*5F
1521442995.42,28215,6.63,71878.8,-2.99,-4.65,-4.69,0,*52
1521442996.62,28216,6.63,71882.8,-2.99,-4.65,-4.65,0,*5D
1521442997.84,28217,6.63,71880.5,-2.97,-4.65,-4.65,0,*52
1521442999.04,28218,6.63,71878.3,-2.99,-4.65,-4.65,0,*53
1521443000.26,28219,6.63,71882.5,-2.99,-4.69,-4.65,0,*5E
1521443001.51,28220,6.63,71880.3,-2.97,-4.65,-4.69,0,*5A
1521443002.76,28221,6.63,71880.0,-2.97,-4.65,-4.69,0,*5B
1521443003.96,28222,6.63,71884.0,-2.99,-4.65,-4.65,0,*5A
1521443005.21,28223,6.63,71882.3,-2.97,-4.65,-4.69,0,*59
1521443006.43,28224,6.63,71880.8,-2.99,-4.69,-4.65,0,*50
1521443007.65,28225,6.63,71880.0,-2.99,-4.69,-4.65,0,*51
1521443008.85,28226,6.63,71878.3,-2.95,-4.61,-4.61,0,*52
1521443010.05,28227,6.63,71882.8,-2.95,-4.61,-4.61,0,*53
1521443011.25,28228,6.63,71882.5,-2.95,-4.61,-4.61,0,*5C
1521443012.45,28229,6.63,71880.3,-2.91,-4.61,-4.61,0,*59
1521443013.66,28230,6.63,71886.0,-2.91,-4.61,-4.65,0,*55
1521443014.86,28231,6.63,71886.3,-2.95,-4.61,-4.65,0,*50
1521443016.06,28232,6.63,71884.3,-2.95,-4.65,-4.61,0,*53
1521443017.26,28233,6.63,71884.0,-2.95,-4.61,-4.61,0,*56
1521443018.46,28234,6.63,71882.3,-2.91,-4.65,-4.65,0,*55
1521443019.67,28235,6.63,71880.5,-2.91,-4.65,-4.65,0,*54
1521443020.87,28236,6.63,71882.3,-2.91,-4.61,-4.61,0,*57
1521443022.09,28237,6.63,71884.3,-2.89,-4.61,-4.57,0,*5A
1521443023.32,28238,6.63,71882.5,-2.91,-4.65,-4.73,0,*5E
1521443024.55,28239,6.63,71886.0,-2.89,-4.57,-4.57,0,*51
1521443025.78,28240,6.63,71884.3,-2.89,-4.57,-4.57,0,*5F
1521443027.03,28241,6.63,71882.8,-2.89,-4.57,-4.69,0,*53
1521443028.26,28242,6.63,71886.3,-2.89,-4.57,-4.57,0,*5D
1521443029.48,28243,6.63,71884.5,-2.89,-4.57,-4.61,0,*59
1521443030.71,28244,6.63,71882.5,-2.89,-4.57,-4.61,0,*5E
1521443031.94,28245,6.63,71880.3,-2.91,-4.65,-4.73,0,*54
1521443033.14,28246,6.63,71884.5,-2.87,-4.61,-4.61,0,*57
1521443034.34,28247,6.63,71884.0,-2.87,-4.61,-4.57,0,*53
1521443035.57,28248,6.63,71882.3,-2.89,-4.61,-4.57,0,*52
1521443036.79,28249,6.63,71884.0,-2.89,-4.61,-4.61,0,*56
1521443038.01,28250,6.63,71886.5,-2.89,-4.61,-4.61,0,*5E
1521443039.21,28251,6.63,71882.8,-2.87,-4.61,-4.61,0,*51
1521443040.41,28252,6.63,71882.0,-2.87,-4.61,-4.61,0,*52
1521443041.61,28253,6.63,71882.5,-2.87,-4.61,-4.61,0,*53
1521443042.82,28254,6.63,71880.5,-2.87,-4.61,-4.61,0,*54
1521443044.04,28255,6.63,71884.0,-2.89,-4.61,-4.61,0,*5B
1521443045.25,28256,6.63,71884.5,-2.87,-4.57,-4.57,0,*56
1521443046.47,28257,6.63,71882.3,-2.89,-4.61,-4.61,0,*59
1521443047.69,28258,6.63,71882.5,-2.89,-4.61,-4.57,0,*53
1521443048.9,28259,6.63,71882.8,-2.87,-4.61,-4.57,0,*5C
1521443050.12,28260,6.63,71886.8,-2.87,-4.57,-4.69,0,*5E
1521443051.33,28261,6.63,71882.3,-2.87,-4.61,-4.61,0,*52
1521443052.55,28262,6.63,71880.8,-2.87,-4.61,-4.73,0,*52
1521443053.77,28263,6.63,71880.8,-2.87,-4.61,-4.69,0,*58
1521443055.02,28264,6.63,71882.5,-2.87,-4.69,-4.73,0,*5C
1521443056.24,28265,6.63,71880.5,-2.83,-4.65,-4.69,0,*5E
1521443057.47,28266,6.63,71880.3,-2.85,-4.65,-4.65,0,*57
1521443058.67,28267,6.63,71876.3,-2.83,-4.57,-4.65,0,*51
1521443059.89,28268,6.63,71878.0,-2.83,-4.57,-4.69,0,*52
1521443061.12,28269,6.63,71876.5,-2.85,-4.57,-4.65,0,*59
1521443062.35,28270,6.63,71878.8,-2.85,-4.65,-4.65,0,*50
1521443063.55,28271,6.63,71880.0,-2.83,-4.65,-4.65,0,*57
1521443064.75,28272,6.63,71880.3,-2.83,-4.65,-4.65,0,*54
1521443065.98,28273,6.63,71880.8,-2.85,-4.57,-4.57,0,*53
1521443067.17,28274,6.63,71880.8,-2.83,-4.53,-4.57,0,*56
1521443068.4,28275,6.63,71884.3,-2.85,-4.57,-4.65,0,*54
1521443069.63,28276,6.63,71884.0,-2.85,-4.57,-4.65,0,*57
1521443070.83,28277,6.63,71880.5,-2.83,-4.65,-4.65,0,*51
1521443072.03,28278,6.63,71884.3,-2.83,-4.57,-4.65,0,*5F
1521443073.23,28279,6.63,71882.8,-2.83,-4.65,-4.65,0,*5F
1521443074.43,28280,6.63,71886.3,-2.83,-4.65,-4.65,0,*59
1521443075.63,28281,6.63,71882.5,-2.83,-4.65,-4.65,0,*58
1521443076.82,28282,6.63,71882.3,-2.83,-4.65,-4.65,0,*5B
1521443078.05,28283,6.63,71884.8,-2.83,-4.65,-4.69,0,*56
1521443079.24,28284,6.63,71884.5,-2.83,-4.65,-4.65,0,*5D
1521443080.44,28285,6.63,71880.3,-2.83,-4.65,-4.65,0,*5C
1521443081.66,28286,6.63,71882.0,-2.81,-4.61,-4.61,0,*5D
1521443082.88,28287,6.63,71886.3,-2.81,-4.53,-4.61,0,*5D
1521443084.1,28288,6.63,71884.3,-2.81,-4.61,-4.61,0,*53
1521443085.32,28289,6.63,71884.3,-2.81,-4.61,-4.61,0,*52
1521443086.54,28290,6.63,71882.8,-2.81,-4.61,-4.61,0,*5A
1521443087.74,28291,6.63,71886.3,-2.79,-4.49,-4.61,0,*56
1521443088.96,28292,6.63,71880.0,-2.81,-4.53,-4.65,0,*5D
1521443090.15,28293,6.63,71884.5,-2.79,-4.49,-4.57,0,*51
1521443091.37,28294,6.69,71886.8,-2.81,-4.61,-4.61,0,*5E
1521443092.57,28295,6.63,71884.0,-2.79,-4.61,-4.61,0,*58
1521443093.79,28296,6.63,71886.0,-2.81,-4.61,-4.65,0,*58
1521443095.02,28297,6.63,71882.8,-2.81,-4.61,-4.65,0,*59
1521443096.24,28298,6.63,71880.8,-2.81,-4.61,-4.61,0,*52
1521443097.43,28299,6.69,71886.5,-2.79,-4.49,-4.57,0,*5B
1521443098.65,28300,6.63,71884.5,-2.81,-4.65,-4.61,0,*56
1521443099.85,28301,6.63,71882.5,-2.79,-4.49,-4.61,0,*5E
1521443101.07,28302,6.63,71882.5,-2.81,-4.53,-4.65,0,*55
1521443102.27,28303,6.63,71882.3,-2.79,-4.49,-4.57,0,*59
1521443103.47,28304,6.63,71880.3,-2.79,-4.57,-4.57,0,*51
1521443104.68,28305,6.63,71880.3,-2.79,-4.57,-4.57,0,*50
1521443105.88,28306,6.63,71880.5,-2.79,-4.49,-4.57,0,*5C
1521443107.07,28307,6.63,71884.3,-2.79,-4.49,-4.49,0,*52
1521443108.27,28308,6.63,71880.8,-2.79,-4.57,-4.57,0,*5D
1521443109.47,28309,6.63,71880.0,-2.79,-4.57,-4.49,0,*53
1521443110.68,28310,6.63,71882.3,-2.79,-4.57,-4.49,0,*5B
1521443111.9,28311,6.63,71884.0,-2.77,-4.57,-4.49,0,*54
1521443113.12,28312,6.63,71882.5,-2.77,-4.49,-4.57,0,*57
1521443114.34,28313,6.63,71882.0,-2.75,-4.45,-4.53,0,*5C
1521443115.56,28314,6.63,71882.5,-2.77,-4.49,-4.61,0,*54
1521443116.79,28315,6.69,71884.8,-2.75,-4.53,-4.53,0,*5D
1521443118.01,28316,6.69,71884.8,-2.77,-4.49,-4.57,0,*53
1521443119.24,28317,6.63,71886.0,-2.77,-4.57,-4.57,0,*5D
1521443120.46,28318,6.63,71884.3,-2.77,-4.49,-4.49,0,*52
1521443121.67,28319,6.63,71884.8,-2.77,-4.49,-4.49,0,*53
1521443122.89,28320,6.63,71886.0,-2.77,-4.49,-4.49,0,*59
1521443124.1,28321,6.63,71884.0,-2.75,-4.45,-4.45,0,*5A
1521443125.33,28322,6.63,71884.8,-2.75,-4.45,-4.53,0,*5E
1521443126.55,28323,6.63,71880.3,-2.77,-4.49,-4.57,0,*55
1521443127.77,28324,6.63,71882.3,-2.77,-4.49,-4.57,0,*52
1521443128.99,28325,6.63,71882.8,-2.75,-4.45,-4.53,0,*59
1521443130.21,28326,6.63,71886.8,-2.75,-4.53,-4.45,0,*5A
1521443131.43,28327,6.63,71880.0,-2.75,-4.41,-4.45,0,*58
1521443132.63,28328,6.63,71886.3,-2.69,-4.45,-4.45,0,*5E
1521443133.82,28329,6.69,71884.8,-2.73,-4.41,-4.45,0,*50
1521443135.01,28330,6.63,71882.3,-2.73,-4.41,-4.45,0,*58
1521443136.19,28331,6.63,71886.8,-2.73,-4.45,-4.45,0,*5D
1521443137.39,28332,6.69,71886.5,-2.73,-4.41,-4.53,0,*5D
1521443138.59,28333,6.63,71884.0,-2.69,-4.37,-4.41,0,*55
1521443139.8,28334,6.63,71884.0,-2.69,-4.41,-4.41,0,*53
1521443140.98,28335,6.63,71880.8,-2.73,-4.45,-4.45,0,*59
1521443142.18,28336,6.69,71886.8,-2.69,-4.37,-4.41,0,*50
1521443143.38,28337,6.63,71882.8,-2.69,-4.41,-4.49,0,*58
1521443144.59,28338,6.63,71884.0,-2.69,-4.41,-4.41,0,*5F
1521443145.78,28339,6.63,71884.5,-2.69,-4.37,-4.41,0,*5F
1521443146.99,28340,6.63,71882.3,-2.69,-4.41,-4.41,0,*50
1521443148.19,28341,6.63,71884.5,-2.69,-4.41,-4.49,0,*59
1521443149.39,28342,6.63,71882.3,-2.69,-4.41,-4.41,0,*52
1521443150.61,28343,6.69,71884.0,-2.67,-4.37,-4.37,0,*5D
1521443151.83,28344,6.63,71886.8,-2.67,-4.37,-4.37,0,*5A
1521443153.03,28345,6.63,71884.3,-2.69,-4.37,-4.41,0,*54
1521443154.25,28346,6.69,71886.5,-2.67,-4.37,-4.41,0,*59
1521443155.46,28347,6.69,71884.5,-2.69,-4.41,-4.41,0,*57
1521443156.68,28348,6.63,71882.3,-2.67,-4.41,-4.41,0,*56
1521443157.9,28349,6.63,71880.3,-2.67,-4.41,-4.41,0,*57
1521443159.1,28350,6.63,71882.8,-2.65,-4.33,-4.37,0,*59
1521443160.3,28351,6.63,71882.8,-2.65,-4.37,-4.37,0,*5C
1521443161.49,28352,6.63,71884.3,-2.65,-4.37,-4.37,0,*5F
1521443162.68,28353,6.63,71884.8,-2.65,-4.37,-4.33,0,*5A
1521443163.88,28354,6.63,71882.3,-2.65,-4.37,-4.37,0,*59
1521443165.08,28355,6.63,71882.8,-2.65,-4.33,-4.33,0,*58
1521443166.3,28356,6.63,71886.3,-2.67,-4.41,-4.49,0,*51
1521443167.5,28357,6.69,71886.8,-2.65,-4.33,-4.33,0,*5A
1521443168.7,28358,6.69,71886.8,-2.65,-4.33,-4.37,0,*51
1521443169.9,28359,6.63,71884.5,-2.65,-4.37,-4.37,0,*54
1521443171.09,28360,6.69,71886.5,-2.65,-4.37,-4.33,0,*5A
1521443172.31,28361,6.69,71886.5,-2.63,-4.37,-4.37,0,*59
1521443173.51,28362,6.63,71884.5,-2.61,-4.29,-4.29,0,*58
1521443174.73,28363,6.63,71886.3,-2.63,-4.37,-4.33,0,*5F
1521443175.95,28364,6.69,71888.5,-2.63,-4.33,-4.33,0,*5C
1521443177.18,28365,6.63,71884.3,-2.63,-4.37,-4.37,0,*5D
1521443178.37,28366,6.69,71886.0,-2.61,-4.29,-4.33,0,*57
1521443179.57,28367,6.63,71880.8,-2.61,-4.29,-4.29,0,*5D
1521443180.77,28368,6.63,71884.5,-2.61,-4.33,-4.33,0,*52
1521443181.97,28369,6.69,71886.0,-2.61,-4.33,-4.29,0,*58
1521443183.18,28370,6.69,71884.5,-2.61,-4.33,-4.41,0,*5E
1521443184.37,28371,6.69,71886.0,-2.61,-4.29,-4.41,0,*54
1521443185.57,28372,6.69,71884.8,-2.61,-4.29,-4.29,0,*59
1521443186.77,28373,6.69,71888.3,-2.61,-4.29,-4.33,0,*53
1521443188.0,28374,6.69,71886.3,-2.59,-4.33,-4.33,0,*54
1521443189.22,28375,6.63,71884.0,-2.59,-4.33,-4.29,0,*5E
1521443190.45,28376,6.69,71884.5,-2.59,-4.33,-4.41,0,*53
1521443191.68,28377,6.69,71884.8,-2.59,-4.33,-4.33,0,*57
1521443192.9,28378,6.69,71886.5,-2.59,-4.33,-4.29,0,*53
1521443194.13,28379,6.69,71886.8,-2.59,-4.29,-4.33,0,*52
1521443195.35,28380,6.69,71884.0,-2.59,-4.29,-4.29,0,*5F
1521443196.55,28381,6.69,71884.0,-2.57,-4.29,-4.29,0,*50
1521443197.75,28382,6.69,71884.3,-2.57,-4.29,-4.29,0,*53
1521443198.94,28383,6.69,71888.5,-2.57,-4.29,-4.29,0,*52
1521443200.14,28384,6.69,71886.3,-2.57,-4.29,-4.25,0,*59
1521443201.34,28385,6.63,71884.3,-2.57,-4.25,-4.29,0,*58
1521443202.54,28386,6.69,71888.5,-2.57,-4.25,-4.25,0,*57
1521443203.74,28387,6.69,71884.0,-2.57,-4.29,-4.29,0,*56
1521443204.93,28388,6.63,71882.8,-2.57,-4.25,-4.29,0,*55
1521443206.16,28389,6.69,71884.0,-2.55,-4.25,-4.25,0,*5A
1521443207.36,28390,6.69,71888.8,-2.53,-4.25,-4.33,0,*53
1521443208.59,28391,6.69,71884.0,-2.55,-4.25,-4.25,0,*53
1521443209.79,28392,6.69,71884.5,-2.53,-4.21,-4.33,0,*55
1521443211.02,28393,6.69,71886.0,-2.55,-4.33,-4.25,0,*56
1521443212.22,28394,6.63,71882.0,-2.53,-4.25,-4.25,0,*50
1521443213.45,28395,6.69,71886.8,-2.55,-4.25,-4.25,0,*57
1521443214.65,28396,6.69,71888.3,-2.53,-4.25,-4.25,0,*52
1521443215.85,28397,6.69,71888.0,-2.53,-4.25,-4.25,0,*53
1521443217.08,28398,6.69,71886.8,-2.55,-4.25,-4.25,0,*5A
1521443218.28,28399,6.69,71888.5,-2.53,-4.25,-4.25,0,*5D
1521443219.52,28400,6.69,71884.3,-2.51,-4.21,-4.21,0,*58
1521443220.72,28401,6.69,71886.8,-2.53,-4.21,-4.25,0,*5F
1521443221.92,28402,6.69,71888.0,-2.53,-4.25,-4.25,0,*58
1521443223.13,28403,6.69,71888.0,-2.53,-4.25,-4.25,0,*59
1521443224.33,28404,6.69,71886.3,-2.53,-4.21,-4.25,0,*5A
1521443225.54,28405,6.69,71884.8,-2.53,-4.21,-4.25,0,*5B
1521443226.74,28406,6.69,71884.8,-2.53,-4.25,-4.25,0,*5C
1521443227.97,28407,6.69,71884.8,-2.51,-4.17,-4.21,0,*5A
1521443229.19,28408,6.69,71886.5,-2.51,-4.17,-4.21,0,*55
1521443230.42,28409,6.69,71890.0,-2.51,-4.17,-4.21,0,*54
1521443231.65,28410,6.69,71886.8,-2.51,-4.21,-4.21,0,*59
1521443232.88,28411,6.69,71884.8,-2.51,-4.17,-4.21,0,*5D
1521443234.08,28412,6.69,71886.5,-2.49,-4.21,-4.21,0,*52
1521443235.31,28413,6.69,71884.5,-2.51,-4.21,-4.29,0,*52
1521443236.54,28414,6.69,71886.3,-2.51,-4.17,-4.21,0,*58
1521443237.72,28415,6.69,71884.0,-2.49,-4.17,-4.17,0,*55
1521443238.95,28416,6.69,71888.5,-2.51,-4.17,-4.21,0,*5A
1521443240.16,28417,6.69,71884.3,-2.49,-4.21,-4.21,0,*57
1521443241.36,28418,6.69,71886.0,-2.49,-4.21,-4.21,0,*58
1521443242.57,28419,6.69,71886.5,-2.49,-4.21,-4.21,0,*59
1521443243.77,28420,6.69,71888.0,-2.49,-4.17,-4.21,0,*56
1521443244.96,28421,6.69,71886.0,-2.49,-4.17,-4.21,0,*57
1521443246.17,28422,6.69,71884.8,-2.49,-4.21,-4.21,0,*51
1521443247.38,28423,6.69,71890.5,-2.49,-4.21,-4.21,0,*50
1521443248.58,28424,6.69,71884.0,-2.49,-4.21,-4.29,0,*5F
1521443249.78,28425,6.69,71884.8,-2.45,-4.17,-4.25,0,*5B
1521443250.98,28426,6.69,71886.8,-2.43,-4.13,-4.25,0,*5A
1521443252.17,28427,6.69,71884.8,-2.45,-4.17,-4.17,0,*58
1521443253.37,28428,6.69,71888.5,-2.45,-4.13,-4.29,0,*5E
1521443254.56,28429,6.69,71888.3,-2.45,-4.17,-4.17,0,*56
1521443255.76,28430,6.69,71888.3,-2.43,-4.17,-4.17,0,*58
1521443256.95,28431,6.69,71884.5,-2.45,-4.17,-4.17,0,*5F
1521443258.14,28432,6.69,71884.0,-2.45,-4.17,-4.17,0,*5C
1521443259.34,28433,6.69,71884.3,-2.43,-4.13,-4.25,0,*5E
1521443260.55,28434,6.69,71886.8,-2.43,-4.17,-4.25,0,*5D
1521443261.74,28435,6.69,71886.5,-2.45,-4.13,-4.25,0,*5E
1521443262.95,28436,6.69,71884.3,-2.43,-4.17,-4.13,0,*5A
1521443264.14,28437,6.69,71888.3,-2.43,-4.17,-4.17,0,*5F
1521443265.34,28438,6.69,71888.8,-2.43,-4.17,-4.17,0,*50
1521443266.53,28439,6.69,71888.5,-2.43,-4.17,-4.17,0,*51
1521443267.74,28440,6.69,71886.3,-2.43,-4.17,-4.25,0,*5E
1521443268.95,28441,6.69,71888.3,-2.39,-4.13,-4.21,0,*52
1521443270.17,28442,6.69,71886.5,-2.41,-4.09,-4.21,0,*55
1521443271.4,28443,6.69,71888.8,-2.41,-4.09,-4.21,0,*54
1521443272.61,28444,6.69,71884.5,-2.39,-4.13,-4.21,0,*57
1521443273.84,28445,6.69,71886.0,-2.41,-4.13,-4.21,0,*59
1521443275.07,28446,6.69,71886.5,-2.41,-4.13,-4.21,0,*5A
1521443276.28,28447,6.69,71886.3,-2.39,-4.09,-4.13,0,*5E
1521443277.5,28448,6.69,71888.3,-2.41,-4.13,-4.13,0,*55
1521443278.71,28449,6.69,71890.3,-2.39,-4.09,-4.13,0,*50
1521443279.91,28450,6.69,71888.8,-2.39,-4.13,-4.13,0,*53
1521443281.15,28451,6.69,71888.8,-2.41,-4.21,-4.13,0,*5C
1521443282.38,28452,6.69,71890.5,-2.41,-4.09,-4.21,0,*54
1521443283.6,28453,6.69,71888.3,-2.37,-4.09,-4.17,0,*51
1521443284.82,28454,6.69,71888.5,-2.39,-4.21,-4.21,0,*57
1521443286.02,28455,6.69,71886.3,-2.39,-4.13,-4.21,0,*57
1521443287.23,28456,6.69,71890.0,-2.39,-4.13,-4.13,0,*55
1521443288.44,28457,6.69,71884.5,-2.39,-4.13,-4.13,0,*54
1521443289.66,28458,6.69,71890.0,-2.37,-4.17,-4.17,0,*55
1521443290.88,28459,6.69,71890.0,-2.37,-4.17,-4.17,0,*54
1521443292.11,28460,6.69,71890.8,-2.37,-4.05,-4.05,0,*5E
1521443293.33,28461,6.69,71890.3,-2.37,-4.17,-4.17,0,*5F
1521443294.53,28462,6.69,71888.3,-2.35,-4.05,-4.13,0,*59
1521443295.76,28463,6.69,71890.3,-2.37,-4.09,-4.17,0,*52
1521443296.95,28464,6.69,71884.3,-2.35,-4.13,-4.17,0,*5C
1521443298.18,28465,6.69,71888.0,-2.37,-4.09,-4.09,0,*5B
1521443299.4,28466,6.69,71890.8,-2.37,-4.09,-4.17,0,*57
1521443300.62,28467,6.69,71890.8,-2.37,-4.09,-4.17,0,*56
1521443301.86,28468,6.69,71886.5,-2.37,-4.05,-4.21,0,*50
1521443303.06,28469,6.69,71886.8,-2.35,-4.13,-4.13,0,*55
1521443304.26,28470,6.69,71886.5,-2.35,-4.05,-4.13,0,*5A
1521443305.46,28471,6.69,71890.5,-2.35,-4.05,-4.13,0,*5B
1521443306.66,28472,6.69,71888.3,-2.35,-4.05,-4.05,0,*5F
1521443307.86,28473,6.69,71884.0,-2.35,-4.05,-4.05,0,*5E
1521443309.06,28474,6.69,71890.0,-2.35,-4.05,-4.05,0,*59
1521443310.26,28475,6.69,71890.3,-2.35,-4.13,-4.13,0,*58
1521443311.47,28476,6.69,71886.8,-2.35,-4.13,-4.13,0,*5B
1521443312.69,28477,6.69,71884.3,-2.33,-4.13,-4.13,0,*5C
1521443313.95,28478,6.69,71886.8,-2.33,-4.13,-4.01,0,*50
1521443315.17,28479,6.69,71888.5,-2.33,-4.05,-4.05,0,*52
1521443316.4,28480,6.69,71894.0,-2.33,-4.05,-4.05,0,*54